Weather in Ayteke-Bi

Kazakhstan     45°50′43″N   62°09′13″E
temp.,
°C
wind,
m/s
gust,
m/s
humid.,
%
clouds,
%
prec.,
mm/h
press.,
hPa
HPBL,
m
12 april, mon
mon1223:00+15ne510290 0.0 1026200
02:00+13ne612410 0.0 1026249
05:00+10nne510560 0.0 1026197
08:00+11nne710560 0.0 1026321
11:00+16ne810320 0.0 1026798
14:00+20ene810180 0.0 10251423
17:00+21ene911160 0.0 10241628
20:00+18ne510200 0.0 1024219
13 april, tue
tue1323:00+15ne510260 0.0 1024162
02:00+13nne511340 0.0 1024202
05:00+11nne511460 0.0 1024196
08:00+12nne711470 0.0 1025310
11:00+18ne810280 0.0 1025697
14:00+22ne911160 0.0 10241935
17:00+23ene9111599 0.0 10232268
20:00+20ne5102228 0.0 1023225
14 april, wed
wed1423:00+17ne6123039 0.0 1023224
02:00+15ne815394 0.0 1022339
05:00+13ne7143978 0.0 1021302
08:00+14ene7133719 0.0 1021417
11:00+20ene8102566 0.0 10211059
14:00+22ene910245 0.0 10191680
17:00+22ene99304 0.0 10182082
20:00+19ne711265 0.0 1017500
15 april, thu
thu1523:00+16ne612271 0.0 1017299
02:00+14ne7132960 0.0 1015285
05:00+13ne5103782 0.0 1015237
08:00+13ne6938100 0.0 1015343
11:00+18ene672711 0.0 1015751
14:00+21ene782610 0.0 10131540
17:00+22ene662258 0.0 10121949
20:00+19ene682953 0.0 1013333
16 april, fri
fri1623:00+16nne3430100 0.0 101162
02:00+15nw223170 0.0 101015
05:00+14wnw3334100 0.0 101030
08:00+15w343260 0.0 1010143
11:00+20wsw4523100 0.0 1010839
14:00+22wsw4521100 0.0 10091811
17:00+22sw6622100 0.0 10092142
20:00+19sw3429100 0.0 1009128